| time (UTC) | temp C | wind direction | speed KPH | gust KPH | rain 1hr cm | rain 24hr cm | rain mn cm | humidity % | barometer mb |
| 20260905230019 | 33 | 86 | 0.0 | 4.8 | 0.00 | 0.00 | 0.00 | 62 | 1011.7 |
| 20260905224526 | 34 | 327 | 3.2 | 6.4 | 0.00 | 0.00 | 0.00 | 59 | 1011.7 |
| 20260905223031 | 33 | 166 | 3.2 | 9.7 | 0.00 | 0.00 | 0.00 | 61 | 1011.6 |
| 20260905221513 | 33 | 49 | 3.2 | 8.0 | 0.00 | 0.00 | 0.00 | 59 | 1011.6 |
| 20260905220014 | 33 | 27 | 1.6 | 11.3 | 0.00 | 0.00 | 0.00 | 60 | 1011.5 |
| 20260905214524 | 33 | 351 | 1.6 | 6.4 | 0.00 | 0.03 | 0.00 | 62 | 1011.7 |
| 20260905213030 | 33 | 25 | 1.6 | 9.7 | 0.00 | 0.03 | 0.00 | 60 | 1012.0 |
| 20260905211528 | 33 | 91 | 1.6 | 9.7 | 0.00 | 0.03 | 0.00 | 62 | 1012.1 |
| 20260905210013 | 33 | 56 | 4.8 | 9.7 | 0.00 | 0.03 | 0.00 | 62 | 1012.1 |
| 20260905204519 | 33 | 41 | 4.8 | 12.9 | 0.00 | 0.03 | 0.00 | 63 | 1012.5 |
| 20260905203021 | 33 | 155 | 3.2 | 9.7 | 0.00 | 0.03 | 0.00 | 65 | 1012.7 |
| 20260905201530 | 33 | 110 | 6.4 | 19.3 | 0.00 | 0.03 | 0.00 | 64 | 1013.0 |
| 20260905200039 | 33 | 122 | 1.6 | 6.4 | 0.00 | 0.03 | 0.00 | 66 | 1012.8 |
| 20260905194515 | 33 | 104 | 3.2 | 8.0 | 0.00 | 0.03 | 0.00 | 64 | 1012.9 |
| 20260905193022 | 32 | 30 | 1.6 | 16.1 | 0.00 | 0.03 | 0.00 | 66 | 1013.0 |
| 20260905191532 | 32 | 125 | 3.2 | 8.0 | 0.00 | 0.03 | 0.00 | 66 | 1013.1 |
| 20260905190021 | 32 | 89 | 4.8 | 11.3 | 0.00 | 0.03 | 0.00 | 64 | 1013.4 |
| 20260905184511 | 33 | 118 | 1.6 | 12.9 | 0.00 | 0.03 | 0.00 | 62 | 1013.9 |
| 20260905183016 | 32 | 53 | 3.2 | 9.7 | 0.00 | 0.03 | 0.00 | 67 | 1014.1 |
| 20260905181525 | 32 | 333 | 1.6 | 4.8 | 0.00 | 0.03 | 0.00 | 69 | 1014.1 |
| 20260905180026 | 32 | 151 | 0.0 | 6.4 | 0.00 | 0.03 | 0.00 | 68 | 1014.3 |
| 20260905174507 | 31 | 341 | 3.2 | 9.7 | 0.00 | 0.03 | 0.00 | 70 | 1014.6 |
| 20260905173010 | 30 | 328 | 4.8 | 9.7 | 0.00 | 0.10 | 0.00 | 73 | 1014.8 |
| 20260905171517 | 30 | 4 | 4.8 | 12.9 | 0.00 | 0.18 | 0.00 | 73 | 1015.0 |
| 20260905170023 | 31 | 357 | 3.2 | 11.3 | 0.00 | 0.18 | 0.00 | 73 | 1015.0 |
| 20260905164534 | 30 | 21 | 1.6 | 16.1 | 0.00 | 0.18 | 0.00 | 76 | 1015.0 |
| 20260905163031 | 30 | 330 | 4.8 | 14.5 | 0.00 | 0.18 | 0.00 | 75 | 1015.2 |
| 20260905161531 | 29 | 130 | 0.0 | 8.0 | 0.00 | 0.18 | 0.00 | 79 | 1015.5 |
| 20260905160019 | 28 | 5 | 3.2 | 8.0 | 0.00 | 0.64 | 0.00 | 81 | 1015.6 |
| 20260905154523 | 28 | 289 | 1.6 | 4.8 | 0.00 | 0.84 | 0.00 | 81 | 1015.7 |
| 20260905153045 | 28 | 79 | 0.0 | 1.6 | 0.00 | 0.89 | 0.00 | 83 | 1015.6 |
| 20260905151539 | 27 | 70 | 0.0 | 4.8 | 0.00 | 0.89 | 0.00 | 86 | 1015.5 |
| 20260905150032 | 26 | 42 | 0.0 | 4.8 | 0.00 | 0.89 | 0.00 | 87 | 1015.5 |
| 20260905144523 | 26 | 334 | 1.6 | 8.0 | 0.00 | 0.89 | 0.00 | 87 | 1015.5 |
| 20260905143030 | 25 | 276 | 0.0 | 0.0 | 0.00 | 0.89 | 0.00 | 91 | 1015.4 |
| 20260905141530 | 24 | 324 | 0.0 | 3.2 | 0.00 | 0.89 | 0.00 | 94 | 1015.5 |
| 20260905140032 | 24 | 24 | 0.0 | 3.2 | 0.00 | 0.89 | 0.00 | 95 | 1015.5 |
| 20260905134522 | 24 | 40 | 0.0 | 3.2 | 0.00 | 0.89 | 0.00 | 95 | 1015.4 |
| 20260905133030 | 24 | 346 | 0.0 | 3.2 | 0.00 | 0.89 | 0.00 | 96 | 1015.3 |
| 20260905131536 | 23 | 344 | 0.0 | 3.2 | 0.00 | 0.89 | 0.00 | 96 | 1015.3 |
| 20260905130039 | 23 | 110 | 0.0 | 0.0 | 0.00 | 0.89 | 0.00 | 96 | 1015.0 |
| 20260905124514 | 23 | 110 | 0.0 | 1.6 | 0.00 | 0.89 | 0.00 | 96 | 1015.0 |
| 20260905123017 | 23 | 82 | 0.0 | 3.2 | 0.00 | 0.89 | 0.00 | 96 | 1015.0 |
| 20260905121524 | 23 | 44 | 0.0 | 3.2 | 0.00 | 0.89 | 0.00 | 96 | 1014.8 |
| 20260905120027 | 23 | 345 | 0.0 | 3.2 | 0.00 | 0.89 | 0.00 | 96 | 1014.5 |
| 20260905114532 | 23 | 184 | 0.0 | 0.0 | 0.00 | 0.89 | 0.00 | 96 | 1014.4 |
| 20260905113017 | 23 | 185 | 0.0 | 0.0 | 0.00 | 0.89 | 0.00 | 96 | 1014.4 |
| 20260905111540 | 23 | 185 | 0.0 | 1.6 | 0.00 | 0.89 | 0.00 | 96 | 1014.4 |
| 20260905110027 | 23 | 184 | 0.0 | 0.0 | 0.00 | 0.89 | 0.00 | 96 | 1014.4 |
| 20260905104529 | 23 | 184 | 0.0 | 0.0 | 0.00 | 0.89 | 0.00 | 96 | 1014.4 |
| 20260905103031 | 23 | 200 | 0.0 | 0.0 | 0.00 | 0.89 | 0.00 | 96 | 1014.4 |
| 20260905101516 | 23 | 200 | 0.0 | 0.0 | 0.00 | 0.89 | 0.00 | 96 | 1014.5 |
| 20260905100025 | 23 | 186 | 0.0 | 1.6 | 0.00 | 0.89 | 0.00 | 96 | 1014.6 |
| 20260905094526 | 23 | 184 | 0.0 | 0.0 | 0.00 | 0.89 | 0.00 | 96 | 1014.5 |
| 20260905093030 | 23 | 184 | 0.0 | 0.0 | 0.00 | 0.89 | 0.00 | 95 | 1014.4 |
| 20260905091534 | 23 | 184 | 0.0 | 0.0 | 0.00 | 0.89 | 0.00 | 96 | 1014.2 |
| 20260905090019 | 23 | 184 | 0.0 | 0.0 | 0.00 | 0.89 | 0.00 | 95 | 1014.3 |
| 20260905084527 | 23 | 227 | 0.0 | 0.0 | 0.00 | 0.89 | 0.00 | 95 | 1014.2 |
| 20260905083028 | 23 | 227 | 0.0 | 0.0 | 0.00 | 0.89 | 0.00 | 96 | 1014.1 |
| 20260905081534 | 23 | 227 | 0.0 | 0.0 | 0.00 | 0.89 | 0.00 | 95 | 1014.0 |
| 20260905080031 | 23 | 227 | 0.0 | 1.6 | 0.00 | 0.89 | 0.00 | 95 | 1013.9 |
| 20260905074521 | 23 | 185 | 0.0 | 1.6 | 0.00 | 0.89 | 0.00 | 95 | 1013.8 |
| 20260905073034 | 23 | 185 | 0.0 | 0.0 | 0.00 | 0.89 | 0.00 | 95 | 1013.9 |
| 20260905071541 | 23 | 216 | 0.0 | 1.6 | 0.00 | 0.89 | 0.00 | 95 | 1014.0 |
| 20260905070033 | 23 | 139 | 0.0 | 1.6 | 0.00 | 0.89 | 0.00 | 95 | 1014.0 |
| 20260905064536 | 23 | 106 | 0.0 | 0.0 | 0.00 | 0.89 | 0.00 | 95 | 1014.0 |
| 20260905063023 | 23 | 106 | 0.0 | 0.0 | 0.00 | 0.89 | 0.00 | 95 | 1014.0 |
| 20260905061531 | 23 | 106 | 0.0 | 0.0 | 0.00 | 0.89 | 0.00 | 95 | 1014.0 |
| 20260905060036 | 23 | 106 | 0.0 | 0.0 | 0.00 | 0.89 | 0.00 | 94 | 1013.9 |
| 20260905054542 | 23 | 106 | 0.0 | 0.0 | 0.00 | 0.89 | 0.00 | 94 | 1014.0 |
| 20260905053033 | 23 | 107 | 0.0 | 0.0 | 0.00 | 0.89 | 0.00 | 94 | 1013.8 |
| 20260905051527 | 23 | 106 | 0.0 | 0.0 | 0.00 | 0.89 | 0.00 | 94 | 1013.9 |
| 20260905050031 | 23 | 106 | 0.0 | 1.6 | 0.00 | 0.89 | 0.00 | 94 | 1014.0 |
| 20260905044530 | 24 | 106 | 0.0 | 0.0 | 0.00 | 0.89 | 0.89 | 94 | 1014.1 |
| 20260905043031 | 24 | 106 | 0.0 | 0.0 | 0.00 | 0.89 | 0.89 | 94 | 1014.2 |
| 20260905041533 | 24 | 73 | 0.0 | 0.0 | 0.00 | 0.89 | 0.89 | 94 | 1014.4 |
| 20260905040029 | 24 | 122 | 0.0 | 0.0 | 0.00 | 0.89 | 0.89 | 94 | 1014.5 |
| 20260905034509 | 25 | 122 | 0.0 | 0.0 | 0.00 | 0.89 | 0.89 | 94 | 1014.7 |
| 20260905033013 | 25 | 122 | 0.0 | 0.0 | 0.00 | 0.89 | 0.89 | 94 | 1014.9 |
| 20260905031520 | 25 | 221 | 0.0 | 3.2 | 0.00 | 0.89 | 0.89 | 94 | 1014.7 |
| 20260905030024 | 25 | 215 | 0.0 | 0.0 | 0.00 | 0.89 | 0.89 | 94 | 1015.1 |
| 20260905024530 | 25 | 110 | 0.0 | 0.0 | 0.00 | 0.89 | 0.89 | 94 | 1015.2 |
| 20260905023018 | 25 | 110 | 0.0 | 0.0 | 0.00 | 0.89 | 0.89 | 94 | 1014.9 |
| 20260905021516 | 25 | 110 | 0.0 | 0.0 | 0.00 | 0.89 | 0.89 | 93 | 1014.9 |
| 20260905020024 | 25 | 110 | 0.0 | 0.0 | 0.00 | 0.89 | 0.89 | 93 | 1014.6 |
| 20260905014526 | 25 | 110 | 0.0 | 0.0 | 0.00 | 0.89 | 0.89 | 93 | 1014.6 |
| 20260905013031 | 25 | 110 | 0.0 | 0.0 | 0.00 | 0.89 | 0.89 | 93 | 1014.6 |
| 20260905011510 | 25 | 109 | 0.0 | 0.0 | 0.00 | 0.89 | 0.89 | 93 | 1014.5 |
| 20260905010018 | 25 | 109 | 0.0 | 0.0 | 0.00 | 0.89 | 0.89 | 93 | 1014.4 |
| 20260905004532 | 26 | 109 | 0.0 | 0.0 | 0.00 | 0.89 | 0.89 | 92 | 1014.3 |
| 20260905003004 | 26 | 109 | 0.0 | 0.0 | 0.00 | 0.89 | 0.89 | 92 | 1014.4 |
| 20260905001508 | 26 | 109 | 0.0 | 0.0 | 0.00 | 0.89 | 0.89 | 91 | 1014.5 |
| 20260905000014 | 26 | 109 | 0.0 | 0.0 | 0.00 | 0.89 | 0.89 | 91 | 1014.7 |
| 20260904234520 | 26 | 150 | 0.0 | 0.0 | 0.00 | 0.89 | 0.89 | 90 | 1014.9 |
| 20260904233025 | 26 | 212 | 0.0 | 0.0 | 0.00 | 0.89 | 0.89 | 90 | 1014.9 |
| 20260904231509 | 26 | 243 | 0.0 | 0.0 | 0.00 | 0.89 | 0.89 | 90 | 1014.8 |